Powrót do katalogu

ONEWEB-0218

AktywnyŁącznośćPO
NORAD 48214·PAYLOAD·🇬🇧 United Kingdom

Wystrzelony Apr 25, 2021 z Vostochny Cosmodrome

Loading…

Następne Przeloty (najbliższe 24 godziny)

TLE

ŚwieżeSource: CelesTrak SupGP

Epoka: Sep 14, 2026, 13:25 UTC

1 48214C 21031E   26257.55956433 -.00000848  00000+0 -22891-2 0  2570
2 48214  87.8902 271.8789 0001520  69.7683  30.2070 13.14504126    14

Śledź ONEWEB-0218 w czasie rzeczywistym z AllMySat

Download on the App Store